"read_dt","SO2 (ppb)","flags","PMT voltage (V)","lamp voltage (V)","lamp intensity (Hz)","internal temp (C)","react chamber temp (C)","sample flow (l/min)","pres (mmHg)","SO2 bkg (ppb)","SO2 coefficient"
2014-07-05 00:00:00,1821E-3,5C000000,-0724,0837,12224,030.7,045.6,0.480,737.3,01.18,0.508
2014-07-05 00:01:00,1753E-3,5C000000,-0724,0836,12154,030.7,045.6,0.481,737.3,01.18,0.508
2014-07-05 00:02:00,1868E-3,5C000000,-0724,0835,12133,030.7,045.6,0.481,737.3,01.18,0.508
2014-07-05 00:03:00,1780E-3,5C000000,-0724,0835,12198,030.7,045.6,0.481,737.3,01.18,0.508
2014-07-05 00:04:00,1810E-3,5C000000,-0724,0836,12213,030.7,045.6,0.481,737.4,01.18,0.508
2014-07-05 00:05:00,1802E-3,5C000000,-0724,0837,12134,030.7,045.6,0.481,737.3,01.18,0.508
2014-07-05 00:06:00,1826E-3,5C000000,-0724,0836,12178,030.7,045.6,0.481,737.3,01.18,0.508
2014-07-05 00:07:00,1858E-3,5C000000,-0724,0835,12104,030.7,045.6,0.481,737.3,01.18,0.508
2014-07-05 00:08:00,1797E-3,5C000000,-0724,0836,12119,030.7,045.6,0.480,737.3,01.18,0.508
2014-07-05 00:09:00,1808E-3,5C000000,-0724,0835,12029,030.7,045.6,0.480,737.2,01.18,0.508
2014-07-05 00:10:00,1933E-3,5C000000,-0724,0835,12018,030.7,045.6,0.480,737.3,01.18,0.508
2014-07-05 00:11:00,1795E-3,5C000000,-0724,0835,12190,030.7,045.6,0.480,737.2,01.18,0.508
2014-07-05 00:12:00,1944E-3,5C000000,-0724,0835,12194,030.8,045.6,0.481,737.2,01.18,0.508
2014-07-05 00:13:00,1912E-3,5C000000,-0724,0837,12280,030.7,045.6,0.481,737.2,01.18,0.508
2014-07-05 00:14:00,1809E-3,5C000000,-0724,0835,12122,030.7,045.6,0.481,737.2,01.18,0.508
2014-07-05 00:15:00,1816E-3,5C000000,-0724,0836,12259,030.7,045.6,0.481,737.2,01.18,0.508
2014-07-05 00:16:00,1889E-3,5C000000,-0724,0836,12141,030.7,045.6,0.481,737.2,01.18,0.508
2014-07-05 00:17:00,1722E-3,5C000000,-0724,0836,12204,030.7,045.6,0.480,737.2,01.18,0.508
2014-07-05 00:18:00,1707E-3,5C000000,-0724,0836,12206,030.7,045.6,0.480,737.2,01.18,0.508
2014-07-05 00:19:00,1799E-3,5C000000,-0724,0836,12281,030.7,045.6,0.480,737.2,01.18,0.508
2014-07-05 00:20:00,1857E-3,5C000000,-0724,0836,12297,030.8,045.6,0.480,737.2,01.18,0.508
2014-07-05 00:21:00,2025E-3,5C000000,-0724,0835,12148,030.8,045.6,0.480,737.2,01.18,0.508
2014-07-05 00:22:00,1884E-3,5C000000,-0724,0836,12102,030.8,045.6,0.481,737.2,01.18,0.508
2014-07-05 00:23:00,1927E-3,5C000000,-0724,0835,12176,030.8,045.5,0.481,737.2,01.18,0.508
2014-07-05 00:24:00,1800E-3,5C000000,-0724,0836,12027,030.8,045.6,0.481,737.2,01.18,0.508
2014-07-05 00:25:00,1696E-3,5C000000,-0724,0835,11900,030.8,045.6,0.481,737.2,01.18,0.508
2014-07-05 00:26:00,1846E-3,5C000000,-0724,0836,12069,030.8,045.6,0.480,737.1,01.18,0.508
2014-07-05 00:27:00,1873E-3,5C000000,-0724,0836,12224,030.8,045.6,0.480,737.1,01.18,0.508
2014-07-05 00:28:00,1764E-3,5C000000,-0724,0836,12329,030.8,045.6,0.480,737.2,01.18,0.508
2014-07-05 00:29:00,1747E-3,5C000000,-0724,0836,12105,030.8,045.6,0.480,737.2,01.18,0.508
2014-07-05 00:30:00,1692E-3,5C000000,-0724,0836,12075,030.8,045.6,0.480,737.1,01.18,0.508
2014-07-05 00:31:00,1933E-3,5C000000,-0724,0836,12169,030.8,045.6,0.480,737.1,01.18,0.508
2014-07-05 00:32:00,1805E-3,5C000000,-0724,0836,12169,030.8,045.6,0.480,737.0,01.18,0.508
2014-07-05 00:33:00,1837E-3,5C000000,-0724,0836,11816,030.8,045.6,0.480,736.9,01.18,0.508
2014-07-05 00:34:00,1776E-3,5C000000,-0724,0836,12216,030.9,045.6,0.481,736.9,01.18,0.508
2014-07-05 00:35:00,1776E-3,5C000000,-0724,0836,12053,030.8,045.6,0.480,736.9,01.18,0.508
2014-07-05 00:36:00,1897E-3,5C000000,-0724,0835,12239,030.9,045.6,0.480,737.0,01.18,0.508
2014-07-05 00:37:00,1771E-3,5C000000,-0724,0835,12211,030.9,045.6,0.480,736.9,01.18,0.508
2014-07-05 00:38:00,1880E-3,5C000000,-0724,0835,12171,030.9,045.6,0.480,736.9,01.18,0.508
2014-07-05 00:39:00,1790E-3,5C000000,-0724,0836,12168,030.9,045.6,0.480,736.9,01.18,0.508
2014-07-05 00:40:00,1764E-3,5C000000,-0724,0836,12285,030.9,045.6,0.480,736.9,01.18,0.508
2014-07-05 00:41:00,1939E-3,5C000000,-0724,0836,11987,030.9,045.6,0.480,736.9,01.18,0.508
2014-07-05 00:42:00,1754E-3,5C000000,-0724,0836,12070,030.9,045.6,0.480,736.9,01.18,0.508
2014-07-05 00:43:00,1753E-3,5C000000,-0724,0835,11925,030.9,045.6,0.480,736.9,01.18,0.508
2014-07-05 00:44:00,1834E-3,5C000000,-0724,0836,12271,030.9,045.6,0.480,736.9,01.18,0.508
2014-07-05 00:45:00,1850E-3,5C000000,-0724,0836,12245,030.9,045.6,0.480,736.9,01.18,0.508
2014-07-05 00:46:00,1972E-3,5C000000,-0724,0836,12048,030.9,045.6,0.480,736.9,01.18,0.508
2014-07-05 00:47:00,1859E-3,5C000000,-0724,0836,12257,030.9,045.6,0.480,736.9,01.18,0.508
2014-07-05 00:48:00,1932E-3,5C000000,-0724,0835,12192,030.9,045.6,0.480,736.9,01.18,0.508
2014-07-05 00:49:00,1888E-3,5C000000,-0724,0836,12161,030.9,045.6,0.480,736.8,01.18,0.508
2014-07-05 00:50:00,1829E-3,5C000000,-0724,0836,12069,030.9,045.6,0.480,736.9,01.18,0.508
2014-07-05 00:51:00,1995E-3,5C000000,-0724,0837,12109,031.0,045.6,0.480,736.9,01.18,0.508
2014-07-05 00:52:00,1740E-3,5C000000,-0724,0836,12163,030.9,045.6,0.480,736.9,01.18,0.508
2014-07-05 00:53:00,1743E-3,5C000000,-0724,0837,12197,031.0,045.6,0.480,736.9,01.18,0.508
2014-07-05 00:54:00,1930E-3,5C000000,-0724,0836,12197,031.0,045.6,0.480,736.9,01.18,0.508
2014-07-05 00:55:00,1840E-3,5C000000,-0724,0835,11987,031.0,045.6,0.480,736.9,01.18,0.508
2014-07-05 00:56:00,1910E-3,5C000000,-0724,0836,12096,031.0,045.6,0.480,736.8,01.18,0.508
2014-07-05 00:57:00,1854E-3,5C000000,-0724,0836,12106,031.0,045.6,0.480,736.7,01.18,0.508
2014-07-05 00:58:00,1962E-3,5C000000,-0724,0835,12262,031.0,045.6,0.480,736.8,01.18,0.508
2014-07-05 00:59:00,1791E-3,5C000000,-0724,0836,12260,031.0,045.6,0.480,736.8,01.18,0.508
2014-07-05 01:00:00,1764E-3,5C000000,-0724,0836,12291,031.0,045.6,0.480,736.9,01.18,0.508
2014-07-05 01:01:00,1833E-3,5C000000,-0724,0836,12233,031.0,045.6,0.480,736.8,01.18,0.508
2014-07-05 01:02:00,1901E-3,5C000000,-0724,0836,12166,031.0,045.6,0.480,736.8,01.18,0.508
2014-07-05 01:03:00,1813E-3,5C000000,-0724,0836,12036,031.0,045.6,0.480,736.7,01.18,0.508
2014-07-05 01:04:00,1885E-3,5C000000,-0724,0836,11942,031.0,045.6,0.480,736.8,01.18,0.508
2014-07-05 01:05:00,1749E-3,5C000000,-0724,0836,11965,031.0,045.6,0.480,736.8,01.18,0.508
2014-07-05 01:06:00,1891E-3,5C000000,-0724,0837,12182,031.0,045.6,0.480,736.7,01.18,0.508
2014-07-05 01:07:00,1859E-3,5C000000,-0724,0836,12054,031.0,045.6,0.480,736.7,01.18,0.508
2014-07-05 01:08:00,1844E-3,5C000000,-0724,0836,12274,031.0,045.6,0.480,736.7,01.18,0.508
2014-07-05 01:09:00,1842E-3,5C000000,-0724,0837,12157,031.0,045.6,0.480,736.7,01.18,0.508
2014-07-05 01:10:00,1926E-3,5C000000,-0724,0836,12076,031.0,045.6,0.480,736.7,01.18,0.508
2014-07-05 01:11:00,1866E-3,5C000000,-0724,0837,12277,031.0,045.6,0.480,736.7,01.18,0.508
2014-07-05 01:12:00,1854E-3,5C000000,-0724,0836,12011,031.0,045.6,0.480,736.8,01.18,0.508
2014-07-05 01:13:00,1850E-3,5C000000,-0724,0835,12195,031.0,045.6,0.480,736.8,01.18,0.508
2014-07-05 01:14:00,1907E-3,5C000000,-0724,0837,12208,031.0,045.6,0.480,736.8,01.18,0.508
2014-07-05 01:15:00,1871E-3,5C000000,-0724,0837,11797,031.0,045.6,0.480,736.8,01.18,0.508
2014-07-05 01:16:00,1721E-3,5C000000,-0724,0837,12102,031.0,045.6,0.480,736.8,01.18,0.508
2014-07-05 01:17:00,1895E-3,5C000000,-0724,0837,12196,031.0,045.6,0.480,736.8,01.18,0.508
2014-07-05 01:18:00,1848E-3,5C000000,-0724,0837,12081,031.0,045.6,0.480,736.8,01.18,0.508
2014-07-05 01:19:00,1846E-3,5C000000,-0724,0836,12222,031.0,045.6,0.479,736.8,01.18,0.508
2014-07-05 01:20:00,1751E-3,5C000000,-0724,0836,12157,031.0,045.6,0.480,736.8,01.18,0.508
2014-07-05 01:21:00,1740E-3,5C000000,-0724,0836,12142,031.0,045.6,0.480,736.8,01.18,0.508
2014-07-05 01:22:00,1884E-3,5C000000,-0724,0836,12047,031.0,045.6,0.480,736.9,01.18,0.508
2014-07-05 01:23:00,1937E-3,5C000000,-0724,0835,12221,031.0,045.6,0.480,736.8,01.18,0.508
2014-07-05 01:24:00,1891E-3,5C000000,-0724,0836,12061,031.0,045.6,0.480,736.8,01.18,0.508
2014-07-05 01:25:00,1883E-3,5C000000,-0724,0836,12173,031.0,045.6,0.480,736.8,01.18,0.508
2014-07-05 01:26:00,1747E-3,5C000000,-0724,0835,12119,031.0,045.6,0.480,736.7,01.18,0.508
2014-07-05 01:27:00,1862E-3,5C000000,-0724,0836,12094,031.0,045.6,0.480,736.8,01.18,0.508
2014-07-05 01:28:00,1752E-3,5C000000,-0724,0837,12216,031.1,045.6,0.480,736.7,01.18,0.508
2014-07-05 01:29:00,1713E-3,5C000000,-0724,0837,12189,031.1,045.6,0.480,736.8,01.18,0.508
2014-07-05 01:30:00,1774E-3,5C000000,-0724,0837,12065,031.1,045.6,0.480,736.9,01.18,0.508
2014-07-05 01:31:00,1857E-3,5C000000,-0724,0837,12100,031.1,045.6,0.480,736.8,01.18,0.508
2014-07-05 01:32:00,1876E-3,5C000000,-0724,0835,12166,031.1,045.6,0.479,736.8,01.18,0.508
2014-07-05 01:33:00,1881E-3,5C000000,-0724,0836,12267,031.0,045.6,0.479,736.8,01.18,0.508
2014-07-05 01:34:00,1786E-3,5C000000,-0724,0836,12172,031.1,045.6,0.479,736.8,01.18,0.508
2014-07-05 01:35:00,1818E-3,5C000000,-0724,0836,12166,031.1,045.6,0.480,736.8,01.18,0.508
2014-07-05 01:36:00,1857E-3,5C000000,-0724,0836,11744,031.1,045.6,0.480,736.8,01.18,0.508
2014-07-05 01:37:00,1760E-3,5C000000,-0724,0836,12138,031.1,045.6,0.480,736.8,01.18,0.508
2014-07-05 01:38:00,1767E-3,5C000000,-0724,0836,12139,031.1,045.6,0.480,736.8,01.18,0.508
2014-07-05 01:39:00,1805E-3,5C000000,-0724,0836,12148,031.1,045.6,0.480,736.8,01.18,0.508
2014-07-05 01:40:00,1934E-3,5C000000,-0724,0836,12086,031.1,045.6,0.480,736.7,01.18,0.508
2014-07-05 01:41:00,1765E-3,5C000000,-0724,0836,12049,031.1,045.6,0.480,736.7,01.18,0.508
2014-07-05 01:42:00,1902E-3,5C000000,-0724,0836,12052,031.1,045.6,0.480,736.7,01.18,0.508
2014-07-05 01:43:00,1846E-3,5C000000,-0724,0837,12102,031.1,045.6,0.480,736.7,01.18,0.508
2014-07-05 01:44:00,1808E-3,5C000000,-0724,0836,12226,031.1,045.6,0.480,736.7,01.18,0.508
2014-07-05 01:45:00,1854E-3,5C000000,-0724,0836,12063,031.1,045.6,0.480,736.7,01.18,0.508
2014-07-05 01:46:00,1771E-3,5C000000,-0724,0836,12245,031.1,045.6,0.480,736.7,01.18,0.508
2014-07-05 01:47:00,1747E-3,5C000000,-0724,0837,12173,031.1,045.6,0.480,736.6,01.18,0.508
2014-07-05 01:48:00,1779E-3,5C000000,-0724,0837,12008,031.1,045.6,0.479,736.6,01.18,0.508
2014-07-05 01:49:00,1877E-3,5C000000,-0724,0837,12187,031.1,045.6,0.479,736.6,01.18,0.508
2014-07-05 01:50:00,1732E-3,5C000000,-0724,0837,11965,031.1,045.6,0.479,736.5,01.18,0.508
2014-07-05 01:51:00,1899E-3,5C000000,-0724,0836,12146,031.1,045.6,0.479,736.6,01.18,0.508
2014-07-05 01:52:00,1941E-3,5C000000,-0724,0835,12120,031.1,045.6,0.479,736.6,01.18,0.508
2014-07-05 01:53:00,1692E-3,5C000000,-0724,0836,12197,031.1,045.6,0.479,736.6,01.18,0.508
2014-07-05 01:54:00,1712E-3,5C000000,-0724,0837,11997,031.1,045.6,0.480,736.6,01.18,0.508
2014-07-05 01:55:00,1793E-3,5C000000,-0724,0837,12192,031.1,045.6,0.480,736.6,01.18,0.508
2014-07-05 01:56:00,1853E-3,5C000000,-0724,0837,11963,031.1,045.6,0.480,736.6,01.18,0.508
2014-07-05 01:57:00,1799E-3,5C000000,-0724,0836,12156,031.1,045.6,0.480,736.6,01.18,0.508
2014-07-05 01:58:00,1766E-3,5C000000,-0724,0835,12047,031.1,045.6,0.480,736.6,01.18,0.508
2014-07-05 01:59:00,1705E-3,5C000000,-0724,0836,12145,031.1,045.6,0.480,736.6,01.18,0.508
2014-07-05 02:00:00,1863E-3,5C000000,-0724,0836,12167,031.1,045.6,0.480,736.5,01.18,0.508
2014-07-05 02:01:00,1842E-3,5C000000,-0724,0837,12166,031.1,045.6,0.480,736.6,01.18,0.508
2014-07-05 02:02:00,1837E-3,5C000000,-0724,0836,12095,031.1,045.6,0.480,736.5,01.18,0.508
2014-07-05 02:03:00,1724E-3,5C000000,-0724,0837,12021,031.1,045.6,0.480,736.6,01.18,0.508
2014-07-05 02:04:00,1869E-3,5C000000,-0724,0836,12151,031.1,045.6,0.480,736.5,01.18,0.508
2014-07-05 02:05:00,1816E-3,5C000000,-0724,0837,12034,031.2,045.6,0.480,736.6,01.18,0.508
2014-07-05 02:06:00,1887E-3,5C000000,-0724,0837,12242,031.1,045.6,0.480,736.6,01.18,0.508
2014-07-05 02:07:00,1722E-3,5C000000,-0724,0835,12097,031.2,045.6,0.480,736.6,01.18,0.508
2014-07-05 02:08:00,1873E-3,5C000000,-0724,0836,12089,031.2,045.6,0.480,736.6,01.18,0.508
2014-07-05 02:09:00,1809E-3,5C000000,-0724,0836,12197,031.2,045.6,0.479,736.6,01.18,0.508
2014-07-05 02:10:00,1833E-3,5C000000,-0724,0836,12251,031.2,045.6,0.479,736.5,01.18,0.508
2014-07-05 02:11:00,1868E-3,5C000000,-0724,0836,12222,031.1,045.6,0.479,736.6,01.18,0.508
2014-07-05 02:12:00,1876E-3,5C000000,-0724,0836,12069,031.2,045.6,0.479,736.5,01.18,0.508
2014-07-05 02:13:00,1893E-3,5C000000,-0724,0836,12139,031.2,045.6,0.479,736.5,01.18,0.508
2014-07-05 02:14:00,1894E-3,5C000000,-0724,0836,12064,031.2,045.6,0.479,736.6,01.18,0.508
2014-07-05 02:15:00,1895E-3,5C000000,-0724,0836,12161,031.2,045.6,0.479,736.5,01.18,0.508
2014-07-05 02:16:00,1666E-3,5C000000,-0724,0837,12047,031.2,045.6,0.479,736.5,01.18,0.508
2014-07-05 02:17:00,1849E-3,5C000000,-0724,0838,12030,031.2,045.6,0.479,736.5,01.18,0.508
2014-07-05 02:18:00,1764E-3,5C000000,-0724,0836,12059,031.2,045.6,0.479,736.5,01.18,0.508
2014-07-05 02:19:00,1840E-3,5C000000,-0724,0836,12310,031.2,045.6,0.479,736.5,01.18,0.508
2014-07-05 02:20:00,1950E-3,5C000000,-0724,0836,12122,031.2,045.6,0.480,736.5,01.18,0.508
2014-07-05 02:21:00,1860E-3,5C000000,-0724,0836,12212,031.2,045.6,0.480,736.5,01.18,0.508
2014-07-05 02:22:00,1772E-3,5C000000,-0724,0836,12029,031.2,045.6,0.480,736.5,01.18,0.508
2014-07-05 02:23:00,1885E-3,5C000000,-0724,0836,12186,031.2,045.6,0.480,736.5,01.18,0.508
2014-07-05 02:24:00,1811E-3,5C000000,-0724,0836,11934,031.2,045.6,0.480,736.5,01.18,0.508
2014-07-05 02:25:00,1828E-3,5C000000,-0724,0836,12151,031.2,045.6,0.480,736.5,01.18,0.508
2014-07-05 02:26:00,1917E-3,5C000000,-0724,0835,12172,031.2,045.6,0.480,736.5,01.18,0.508
2014-07-05 02:27:00,1773E-3,5C000000,-0724,0837,12218,031.2,045.6,0.480,736.5,01.18,0.508
2014-07-05 02:28:00,1702E-3,5C000000,-0724,0836,12046,031.2,045.6,0.480,736.5,01.18,0.508
2014-07-05 02:29:00,1794E-3,5C000000,-0724,0837,12222,031.2,045.6,0.479,736.5,01.18,0.508
2014-07-05 02:30:00,1819E-3,5C000000,-0724,0836,12111,031.2,045.6,0.479,736.5,01.18,0.508
2014-07-05 02:31:00,1852E-3,5C000000,-0724,0836,12262,031.2,045.6,0.479,736.5,01.18,0.508
2014-07-05 02:32:00,1834E-3,5C000000,-0724,0836,12050,031.2,045.6,0.479,736.5,01.18,0.508
2014-07-05 02:33:00,1838E-3,5C000000,-0724,0836,12170,031.2,045.6,0.479,736.5,01.18,0.508
2014-07-05 02:34:00,1748E-3,5C000000,-0724,0836,12283,031.2,045.6,0.479,736.5,01.18,0.508
2014-07-05 02:35:00,1733E-3,5C000000,-0724,0836,12032,031.2,045.6,0.479,736.4,01.18,0.508
2014-07-05 02:36:00,1816E-3,5C000000,-0724,0836,12068,031.2,045.6,0.479,736.5,01.18,0.508
2014-07-05 02:37:00,1864E-3,5C000000,-0724,0835,12052,031.2,045.6,0.479,736.4,01.18,0.508
2014-07-05 02:38:00,1933E-3,5C000000,-0724,0836,12084,031.3,045.6,0.479,736.4,01.18,0.508
2014-07-05 02:39:00,1859E-3,5C000000,-0724,0835,12023,031.3,045.6,0.479,736.4,01.18,0.508
2014-07-05 02:40:00,1893E-3,5C000000,-0724,0837,12068,031.3,045.6,0.479,736.4,01.18,0.508
2014-07-05 02:41:00,1760E-3,5C000000,-0724,0836,12035,031.3,045.6,0.479,736.4,01.18,0.508
2014-07-05 02:42:00,1824E-3,5C000000,-0724,0836,12053,031.2,045.6,0.479,736.4,01.18,0.508
2014-07-05 02:43:00,1808E-3,5C000000,-0724,0836,12161,031.3,045.6,0.479,736.4,01.18,0.508
2014-07-05 02:44:00,1773E-3,5C000000,-0724,0835,12116,031.3,045.6,0.480,736.4,01.18,0.508
2014-07-05 02:45:00,1779E-3,5C000000,-0724,0837,12128,031.3,045.6,0.479,736.4,01.18,0.508
2014-07-05 02:46:00,1796E-3,5C000000,-0724,0837,12160,031.3,045.6,0.480,736.4,01.18,0.508
2014-07-05 02:47:00,1876E-3,5C000000,-0724,0836,12212,031.3,045.6,0.480,736.2,01.18,0.508
2014-07-05 02:48:00,1832E-3,5C000000,-0724,0836,12129,031.3,045.6,0.480,736.4,01.18,0.508
2014-07-05 02:49:00,1866E-3,5C000000,-0724,0837,12229,031.3,045.6,0.480,736.4,01.18,0.508
2014-07-05 02:50:00,1813E-3,5C000000,-0724,0836,12152,031.3,045.6,0.479,736.4,01.18,0.508
2014-07-05 02:51:00,1810E-3,5C000000,-0724,0837,12163,031.3,045.6,0.480,736.4,01.18,0.508
2014-07-05 02:52:00,1913E-3,5C000000,-0724,0837,12179,031.3,045.6,0.479,736.4,01.18,0.508
2014-07-05 02:53:00,1849E-3,5C000000,-0724,0836,12078,031.3,045.6,0.479,736.4,01.18,0.508
2014-07-05 02:54:00,1832E-3,5C000000,-0724,0836,12263,031.3,045.6,0.479,736.4,01.18,0.508
2014-07-05 02:55:00,1854E-3,5C000000,-0724,0837,12204,031.3,045.6,0.479,736.4,01.18,0.508
2014-07-05 02:56:00,1872E-3,5C000000,-0724,0836,12017,031.3,045.6,0.479,736.5,01.18,0.508
2014-07-05 02:57:00,1747E-3,5C000000,-0724,0836,12212,031.3,045.6,0.479,736.4,01.18,0.508
2014-07-05 02:58:00,1919E-3,5C000000,-0724,0836,12154,031.3,045.6,0.479,736.4,01.18,0.508
2014-07-05 02:59:00,1777E-3,5C000000,-0724,0837,12287,031.3,045.6,0.479,736.5,01.18,0.508
2014-07-05 03:00:00,1814E-3,5C000000,-0724,0837,12201,031.3,045.6,0.479,736.3,01.18,0.508
2014-07-05 03:01:00,1898E-3,5C000000,-0724,0836,12014,031.3,045.6,0.479,736.4,01.18,0.508
2014-07-05 03:02:00,1779E-3,5C000000,-0724,0837,12096,031.3,045.6,0.479,736.4,01.18,0.508
2014-07-05 03:03:00,1852E-3,5C000000,-0724,0837,12187,031.3,045.6,0.479,736.4,01.18,0.508
2014-07-05 03:04:00,1944E-3,5C000000,-0724,0836,12110,031.3,045.6,0.479,736.3,01.18,0.508
2014-07-05 03:05:00,1919E-3,5C000000,-0724,0835,12166,031.3,045.6,0.479,736.4,01.18,0.508
2014-07-05 03:06:00,1953E-3,5C000000,-0724,0836,12266,031.3,045.6,0.479,736.4,01.18,0.508
2014-07-05 03:07:00,1815E-3,5C000000,-0724,0837,12236,031.4,045.6,0.479,736.4,01.18,0.508
2014-07-05 03:08:00,1861E-3,5C000000,-0724,0835,11987,031.3,045.6,0.479,736.4,01.18,0.508
2014-07-05 03:09:00,1782E-3,5C000000,-0724,0836,12160,031.3,045.6,0.479,736.4,01.18,0.508
2014-07-05 03:10:00,1955E-3,5C000000,-0724,0836,12151,031.4,045.6,0.479,736.3,01.18,0.508
2014-07-05 03:11:00,1850E-3,5C000000,-0724,0838,12169,031.3,045.6,0.479,736.3,01.18,0.508
2014-07-05 03:12:00,1937E-3,5C000000,-0724,0835,11986,031.4,045.6,0.479,736.4,01.18,0.508
2014-07-05 03:13:00,1913E-3,5C000000,-0724,0836,12244,031.4,045.6,0.479,736.3,01.18,0.508
2014-07-05 03:14:00,1919E-3,5C000000,-0724,0837,12153,031.4,045.6,0.479,736.2,01.18,0.508
2014-07-05 03:15:00,1724E-3,5C000000,-0724,0836,12005,031.4,045.6,0.479,736.2,01.18,0.508
2014-07-05 03:16:00,1946E-3,5C000000,-0724,0835,12180,031.4,045.6,0.479,736.1,01.18,0.508
2014-07-05 03:17:00,1645E-3,5C000000,-0724,0836,12170,031.4,045.6,0.479,736.2,01.18,0.508
2014-07-05 03:18:00,1872E-3,5C000000,-0724,0836,12191,031.4,045.6,0.479,736.3,01.18,0.508
2014-07-05 03:19:00,1806E-3,5C000000,-0724,0836,12000,031.4,045.6,0.479,736.2,01.18,0.508
2014-07-05 03:20:00,1843E-3,5C000000,-0724,0835,12041,031.4,045.6,0.479,736.3,01.18,0.508
2014-07-05 03:21:00,1809E-3,5C000000,-0724,0836,12134,031.3,045.6,0.479,736.2,01.18,0.508
2014-07-05 03:22:00,1891E-3,5C000000,-0724,0837,12231,031.3,045.6,0.479,736.2,01.18,0.508
2014-07-05 03:23:00,1885E-3,5C000000,-0724,0837,12221,031.3,045.6,0.479,736.3,01.18,0.508
2014-07-05 03:24:00,1751E-3,5C000000,-0724,0836,12211,031.3,045.6,0.479,736.2,01.18,0.508
2014-07-05 03:25:00,1759E-3,5C000000,-0724,0836,12182,031.2,045.6,0.479,736.2,01.18,0.508
2014-07-05 03:26:00,1932E-3,5C000000,-0724,0836,12063,031.2,045.6,0.479,736.2,01.18,0.508
2014-07-05 03:27:00,1888E-3,5C000000,-0724,0836,12176,031.2,045.6,0.479,736.2,01.18,0.508
2014-07-05 03:28:00,1863E-3,5C000000,-0724,0835,12176,031.2,045.6,0.479,736.2,01.18,0.508
2014-07-05 03:29:00,1716E-3,5C000000,-0724,0836,12133,031.2,045.6,0.479,736.2,01.18,0.508
2014-07-05 03:30:00,1901E-3,5C000000,-0724,0836,12170,031.2,045.6,0.479,736.2,01.18,0.508
2014-07-05 03:31:00,1792E-3,5C000000,-0724,0836,12288,031.2,045.6,0.479,736.2,01.18,0.508
2014-07-05 03:32:00,1726E-3,5C000000,-0724,0836,12015,031.1,045.6,0.479,736.2,01.18,0.508
2014-07-05 03:33:00,1871E-3,5C000000,-0724,0836,12212,031.1,045.6,0.479,736.1,01.18,0.508
2014-07-05 03:34:00,1785E-3,5C000000,-0724,0836,12158,031.1,045.6,0.479,736.1,01.18,0.508
2014-07-05 03:35:00,1918E-3,5C000000,-0724,0835,12004,031.1,045.6,0.479,736.1,01.18,0.508
2014-07-05 03:36:00,1786E-3,5C000000,-0724,0836,12178,031.1,045.6,0.480,736.2,01.18,0.508
2014-07-05 03:37:00,1804E-3,5C000000,-0724,0836,11949,031.1,045.6,0.480,736.1,01.18,0.508
2014-07-05 03:38:00,1845E-3,5C000000,-0724,0836,12175,031.1,045.6,0.480,736.1,01.18,0.508
2014-07-05 03:39:00,1856E-3,5C000000,-0724,0835,12030,031.1,045.6,0.480,736.1,01.18,0.508
2014-07-05 03:40:00,1798E-3,5C000000,-0724,0836,12209,031.1,045.6,0.480,736.1,01.18,0.508
2014-07-05 03:41:00,1957E-3,5C000000,-0724,0836,11979,031.1,045.6,0.479,736.1,01.18,0.508
2014-07-05 03:42:00,1798E-3,5C000000,-0724,0836,11949,031.1,045.6,0.479,736.1,01.18,0.508
2014-07-05 03:43:00,1722E-3,5C000000,-0724,0836,12180,031.1,045.6,0.479,736.0,01.18,0.508
2014-07-05 03:44:00,1869E-3,5C000000,-0724,0836,12137,031.1,045.6,0.479,736.0,01.18,0.508
2014-07-05 03:45:00,1735E-3,5C000000,-0724,0836,12186,031.1,045.6,0.480,736.0,01.18,0.508
2014-07-05 03:46:00,1886E-3,5C000000,-0724,0835,12073,031.1,045.6,0.480,736.0,01.18,0.508
2014-07-05 03:47:00,1912E-3,5C000000,-0724,0836,12379,031.1,045.6,0.480,736.0,01.18,0.508
2014-07-05 03:48:00,1846E-3,5C000000,-0724,0835,12208,031.1,045.6,0.480,736.0,01.18,0.508
2014-07-05 03:49:00,1786E-3,5C000000,-0724,0837,12127,031.1,045.6,0.479,736.0,01.18,0.508
2014-07-05 03:50:00,1795E-3,5C000000,-0724,0836,12031,031.1,045.6,0.479,735.9,01.18,0.508
2014-07-05 03:51:00,1735E-3,5C000000,-0724,0835,12144,031.1,045.6,0.479,736.0,01.18,0.508
2014-07-05 03:52:00,1890E-3,5C000000,-0724,0836,12194,031.1,045.6,0.480,736.0,01.18,0.508
2014-07-05 03:53:00,1883E-3,5C000000,-0724,0836,11844,031.1,045.6,0.480,736.0,01.18,0.508
2014-07-05 03:54:00,1815E-3,5C000000,-0724,0836,12133,031.1,045.6,0.480,736.0,01.18,0.508
2014-07-05 03:55:00,1883E-3,5C000000,-0724,0836,12153,031.1,045.6,0.479,735.9,01.18,0.508
2014-07-05 03:56:00,1835E-3,5C000000,-0724,0836,12154,031.1,045.6,0.479,736.0,01.18,0.508
2014-07-05 03:57:00,1907E-3,5C000000,-0724,0837,12192,031.1,045.6,0.479,736.0,01.18,0.508
2014-07-05 03:58:00,1876E-3,5C000000,-0724,0835,12118,031.1,045.6,0.479,736.0,01.18,0.508
2014-07-05 03:59:00,2005E-3,5C000000,-0724,0837,12194,031.1,045.6,0.480,736.0,01.18,0.508
2014-07-05 04:00:00,1785E-3,5C000000,-0724,0836,12053,031.1,045.6,0.480,736.0,01.18,0.508
2014-07-05 04:01:00,1771E-3,5C000000,-0724,0836,12228,031.1,045.6,0.480,736.0,01.18,0.508
2014-07-05 04:02:00,1821E-3,5C000000,-0724,0836,12109,031.1,045.6,0.480,736.0,01.18,0.508
2014-07-05 04:03:00,1926E-3,5C000000,-0724,0836,12237,031.1,045.6,0.479,735.9,01.18,0.508
2014-07-05 04:04:00,1882E-3,5C000000,-0724,0836,12227,031.2,045.6,0.479,735.9,01.18,0.508
2014-07-05 04:05:00,1906E-3,5C000000,-0724,0836,12304,031.2,045.6,0.479,735.9,01.18,0.508
2014-07-05 04:06:00,1633E-3,5C000000,-0724,0836,12157,031.2,045.6,0.479,735.9,01.18,0.508
2014-07-05 04:07:00,1937E-3,5C000000,-0724,0836,12106,031.2,045.6,0.480,735.9,01.18,0.508
2014-07-05 04:08:00,1707E-3,5C000000,-0724,0836,12052,031.2,045.6,0.480,735.9,01.18,0.508
2014-07-05 04:09:00,1812E-3,5C000000,-0724,0837,12276,031.2,045.6,0.479,735.8,01.18,0.508
2014-07-05 04:10:00,1900E-3,5C000000,-0724,0837,12137,031.2,045.6,0.479,735.8,01.18,0.508
2014-07-05 04:11:00,1720E-3,5C000000,-0724,0836,12001,031.2,045.6,0.479,735.8,01.18,0.508
2014-07-05 04:12:00,1848E-3,5C000000,-0724,0836,12082,031.2,045.6,0.479,735.8,01.18,0.508
2014-07-05 04:13:00,1859E-3,5C000000,-0724,0836,12082,031.2,045.6,0.479,735.8,01.18,0.508
2014-07-05 04:14:00,1702E-3,5C000000,-0724,0836,11845,031.2,045.6,0.479,735.9,01.18,0.508
2014-07-05 04:15:00,1819E-3,5C000000,-0724,0836,12168,031.2,045.6,0.480,735.9,01.18,0.508
2014-07-05 04:16:00,1728E-3,5C000000,-0724,0836,12084,031.2,045.6,0.480,735.9,01.18,0.508
2014-07-05 04:17:00,1817E-3,5C000000,-0724,0836,12071,031.2,045.6,0.479,735.8,01.18,0.508
2014-07-05 04:18:00,1890E-3,5C000000,-0724,0836,12127,031.2,045.6,0.479,735.8,01.18,0.508
2014-07-05 04:19:00,1756E-3,5C000000,-0724,0835,12133,031.2,045.6,0.479,735.8,01.18,0.508
2014-07-05 04:20:00,1836E-3,5C000000,-0724,0836,12104,031.2,045.6,0.479,735.8,01.18,0.508